Time,TemperatureF,DewpointF,PressureIn,WindDirection,WindDirectionDegrees,WindSpeedMPH,WindSpeedGustMPH,Humidity,HourlyPrecipIn,Conditions,Clouds,dailyrainin,SolarRadiationWatts/m^2,SoftwareType,DateUTC
2013-01-25 00:11:00,33.0,33.0,-100.00,SW,216,1.0,2.0,98,-99.99,,,0.00,0.000000,,2013-01-25 08:11:00,
2013-01-25 01:11:00,33.0,33.0,-100.00,SSE,163,2.0,2.0,98,-99.99,,,0.00,0.000000,,2013-01-25 09:11:00,
2013-01-25 02:12:00,33.0,33.0,-100.00,North,4,0.0,1.0,98,-99.99,,,0.00,0.000000,,2013-01-25 10:12:00,
2013-01-25 03:11:00,33.0,33.0,-100.00,West,278,0.0,0.0,98,-99.99,,,0.00,0.000000,,2013-01-25 11:11:00,
2013-01-25 04:11:00,33.0,33.0,-100.00,SSE,155,0.0,1.0,98,-99.99,,,0.01,0.000000,,2013-01-25 12:11:00,
2013-01-25 06:12:00,33.0,33.0,-100.00,SSE,151,1.0,2.0,99,-99.99,,,0.01,0.000000,,2013-01-25 14:12:00,
2013-01-25 07:12:00,34.0,33.0,-100.00,ENE,62,0.0,1.0,99,-99.99,,,0.01,0.000000,,2013-01-25 15:12:00,
2013-01-25 08:12:00,34.0,33.0,-100.00,SE,129,0.0,2.0,99,-99.99,,,0.01,0.000000,,2013-01-25 16:12:00,
2013-01-25 09:12:00,34.0,34.0,-100.00,WNW,282,1.0,2.0,99,-99.99,,,0.01,12.440000,,2013-01-25 17:12:00,
2013-01-25 10:02:00,34.0,34.0,-100.00,South,170,2.0,3.0,99,-99.99,,,0.01,24.639999,,2013-01-25 18:02:00,
2013-01-25 10:11:00,34.0,34.0,-100.00,South,170,2.0,3.0,99,-99.99,,,0.01,24.639999,,2013-01-25 18:11:00,
2013-01-25 12:12:00,36.0,35.0,-100.00,ESE,119,1.0,3.0,97,-99.99,,,0.01,68.339996,,2013-01-25 20:12:00,
2013-01-25 13:11:00,37.0,36.0,-100.00,NW,317,0.0,2.0,96,-99.99,,,0.01,158.639999,,2013-01-25 21:11:00,
2013-01-25 14:11:00,38.0,36.0,-100.00,NW,318,1.0,2.0,95,-99.99,,,0.01,115.639999,,2013-01-25 22:11:00,
2013-01-25 15:11:00,38.0,37.0,-100.00,South,172,1.0,3.0,96,-99.99,,,0.01,61.020000,,2013-01-25 23:11:00,
2013-01-25 16:11:00,38.0,37.0,-100.00,NW,325,0.0,1.0,96,-99.99,,,0.01,34.520000,,2013-01-26 00:11:00,
2013-01-25 17:11:00,38.0,37.0,-100.00,North,4,0.0,2.0,97,-99.99,,,0.01,20.570000,,2013-01-26 01:11:00,
2013-01-25 18:11:00,38.0,37.0,-100.00,SE,136,0.0,1.0,98,-99.99,,,0.01,0.930000,,2013-01-26 02:11:00,
2013-01-25 19:11:00,37.0,36.0,-100.00,NNW,347,1.0,2.0,98,-99.99,,,0.01,0.000000,,2013-01-26 03:11:00,
2013-01-25 20:12:00,36.0,36.0,-100.00,NW,307,0.0,2.0,99,-99.99,,,0.01,0.000000,,2013-01-26 04:12:00,
2013-01-25 21:12:00,36.0,36.0,-100.00,East,97,1.0,2.0,99,-99.99,,,0.01,0.000000,,2013-01-26 05:12:00,
2013-01-25 22:12:00,36.0,36.0,-100.00,SW,231,0.0,1.0,99,-99.99,,,0.01,0.000000,,2013-01-26 06:12:00,
2013-01-25 23:12:00,36.0,36.0,-100.00,SW,229,1.0,2.0,99,-99.99,,,0.01,0.000000,,2013-01-26 07:12:00,